Buffalo, MN

11:14 PM CST on December 12, 2019 (GMT -0600)
Buffalo

Weather History for KCFE - October, 2019

Change the Weather History Date:

Friday, October 4, 2019

  Actual Average (KMIC) Record (KMIC)
Temperature  
Mean Temperature 45 °F -  
Max Temperature 48 °F 62 °F 84 °F (2011)
Min Temperature 43 °F 39 °F 30 °F (2004)
Degree Days  
Heating Degree Days 20    
Moisture  
Dew Point 38 °F    
Average Humidity 74    
Maximum Humidity 84    
Minimum Humidity 66    
Precipitation  
Precipitation 0.00 in - - ()
Sea Level Pressure  
Sea Level Pressure 30.37 in    
Wind  
Wind Speed - (North)    
Max Wind Speed -    
Max Gust Speed -    
Visibility 10 miles    
Events Rain    
Averages and records for this station are not official NWS values.
T = Trace of Precipitation, MM = Missing Value Source: NWS Daily Summary

Daily Weather History Graph

Daily Weather History Graph

Search for Another Location

Airport or City:

Astronomy

Oct. 04, 2019 Rise Set
Actual Time 7:16 AM CDT 6:50 PM CDT
Civil Twilight 6:47 AM CDT 7:19 PM CDT
Nautical Twilight 6:13 AM CDT 7:53 PM CDT
Astronomical Twilight 5:38 AM CDT 8:28 PM CDT
Moon 2:04 PM CDT (10/4) 11:04 PM CDT (10/4)
Length of Visible Light 12h 32m
Length of Day
11h 33m
Waxing Crescent, 40% of the Moon is Illuminated
Oct 4
Waxing Crescent
Oct 5
First Quarter
Oct 13
Full
Oct 21
Last Quarter
Oct 27
New

Hourly Weather History & Observations

Time (CDT) Temp. Dew Point Humidity Pressure Visibility Wind Dir Wind Speed Gust Speed Precip Events Conditions
12:15 AM 44.6 °F 39.6 °F 82% 30.39 in 10.0 mi North - - N/A   Overcast
12:35 AM 44.6 °F 39.7 °F 83% 30.40 in 10.0 mi North - - N/A   Overcast
12:36 AM 44.6 °F 39.7 °F 83% 30.40 in 10.0 mi North - - N/A   Overcast
12:55 AM 44.6 °F 40.1 °F 84% 30.40 in 10.0 mi North - - N/A   Overcast
1:35 AM 44.6 °F 40.1 °F 84% 30.41 in 10.0 mi North - - N/A   Overcast
1:55 AM 44.6 °F 39.6 °F 82% 30.41 in 10.0 mi North - - N/A   Overcast
1:56 AM 44.6 °F 39.6 °F 82% 30.41 in 10.0 mi North - - N/A   Overcast
2:16 AM 44.6 °F 40.1 °F 84% 30.41 in 10.0 mi North - - N/A   Overcast
2:35 AM 44.6 °F 40.1 °F 84% 30.42 in 10.0 mi North - - N/A   Overcast
2:55 AM 44.6 °F 39.4 °F 82% 30.41 in 10.0 mi North - - N/A   Overcast
2:56 AM 44.6 °F 39.4 °F 82% 30.42 in 10.0 mi North - - N/A   Overcast
3:16 AM 44.6 °F 39.6 °F 82% 30.42 in 10.0 mi North - - N/A   Overcast
3:35 AM 44.6 °F 37.4 °F 76% 30.43 in 10.0 mi North - - N/A   Overcast
3:36 AM 44.6 °F 37.4 °F 76% 30.43 in 10.0 mi North - - N/A   Overcast
3:55 AM 44.8 °F 36.7 °F 73% 30.43 in 10.0 mi North - - N/A   Overcast
4:15 AM 44.8 °F 36.5 °F 73% 30.43 in 10.0 mi North - - N/A   Overcast
4:16 AM 44.6 °F 36.5 °F 73% 30.43 in 10.0 mi North - - N/A   Overcast
4:35 AM 44.6 °F 37.8 °F 77% 30.44 in 10.0 mi North - - N/A   Overcast
4:55 AM 44.6 °F 35.6 °F 71% 30.44 in 10.0 mi North - - N/A   Overcast
5:15 AM 44.6 °F 36.9 °F 74% 30.44 in 10.0 mi North - - N/A   Overcast
5:35 AM 43.9 °F 36.7 °F 76% 30.45 in 10.0 mi North - - N/A   Overcast
5:55 AM 44.1 °F 36.0 °F 73% 30.45 in 10.0 mi North - - N/A   Overcast
6:15 AM 43.9 °F 35.6 °F 73% 30.45 in 10.0 mi North - - N/A   Overcast
6:35 AM 43.7 °F 35.4 °F 73% 30.46 in 10.0 mi North - - N/A   Overcast
6:55 AM 43.7 °F 35.8 °F 74% 30.47 in 10.0 mi North - - N/A   Overcast
7:15 AM 43.7 °F 36.1 °F 75% 30.47 in 10.0 mi North - - N/A   Overcast
7:35 AM 43.7 °F 36.1 °F 75% 30.47 in 10.0 mi North - - N/A   Overcast
7:55 AM 43.7 °F 36.5 °F 76% 30.47 in 10.0 mi North - - N/A   Overcast
8:15 AM 43.7 °F 37.0 °F 77% 30.47 in 10.0 mi North - - N/A   Overcast
8:35 AM 44.2 °F 36.7 °F 75% 30.47 in 10.0 mi North - - N/A   Overcast
8:55 AM 44.6 °F 36.5 °F 73% 30.46 in 10.0 mi North - - N/A   Overcast
8:56 AM 44.6 °F 36.3 °F 73% 30.46 in 10.0 mi North - - N/A   Overcast
9:15 AM 45.5 °F 35.8 °F 69% 30.46 in 10.0 mi North - - N/A   Overcast
9:35 AM 45.5 °F 35.1 °F 67% 30.47 in 10.0 mi North - - N/A   Overcast
9:55 AM 45.7 °F 35.2 °F 67% 30.47 in 10.0 mi North - - N/A   Overcast
10:15 AM 45.7 °F 35.1 °F 66% 30.46 in 10.0 mi North - - N/A   Overcast
10:16 AM 45.7 °F 35.1 °F 66% 30.46 in 10.0 mi North - - N/A   Overcast
10:35 AM 46.4 °F 35.8 °F 67% 30.45 in 10.0 mi North - - N/A   Overcast
10:55 AM 46.4 °F 36.3 °F 68% 30.45 in 10.0 mi North - - N/A   Overcast
10:56 AM 46.4 °F 36.1 °F 67% 30.45 in 10.0 mi North - - N/A   Overcast
11:15 AM 46.4 °F 36.0 °F 67% 30.44 in 10.0 mi North - - N/A   Overcast
11:35 AM 46.4 °F 35.8 °F 67% 30.44 in 10.0 mi North - - N/A   Overcast
11:55 AM 46.4 °F 36.1 °F 67% 30.43 in 10.0 mi North - - N/A   Overcast
12:15 PM 46.4 °F 36.3 °F 68% 30.43 in 10.0 mi North - - N/A   Overcast
12:35 PM 46.4 °F 36.3 °F 68% 30.42 in 10.0 mi North - - N/A   Overcast
12:55 PM 46.6 °F 36.1 °F 67% 30.42 in 10.0 mi North - - N/A   Overcast
1:15 PM 47.3 °F 36.5 °F 66% 30.41 in 10.0 mi North - - N/A   Overcast
1:35 PM 46.8 °F 36.5 °F 67% 30.41 in 10.0 mi North - - N/A   Overcast
1:55 PM 46.9 °F 36.9 °F 68% 30.40 in 10.0 mi North - - N/A   Overcast
2:15 PM 47.8 °F 36.9 °F 66% 30.39 in 10.0 mi North - - N/A   Overcast
2:35 PM 47.8 °F 37.2 °F 67% 30.38 in 10.0 mi North - - N/A   Overcast
2:36 PM 47.8 °F 37.2 °F 67% 30.38 in 10.0 mi North - - N/A   Overcast
2:55 PM 47.8 °F 37.6 °F 68% 30.37 in 10.0 mi North - - N/A   Overcast
3:15 PM 47.8 °F 37.9 °F 69% 30.37 in 10.0 mi North - - N/A   Overcast
3:35 PM 47.8 °F 37.4 °F 67% 30.34 in 10.0 mi North - - N/A   Overcast
3:55 PM 47.8 °F 36.9 °F 66% 30.34 in 10.0 mi North - - N/A   Overcast
4:15 PM 47.8 °F 36.9 °F 66% 30.33 in 10.0 mi North - - N/A   Overcast
4:35 PM 47.8 °F 36.9 °F 66% 30.33 in 10.0 mi North - - N/A   Overcast
4:55 PM 47.8 °F 37.8 °F 68% 30.31 in 10.0 mi North - - N/A   Overcast
4:56 PM 47.8 °F 37.8 °F 68% 30.31 in 10.0 mi North - - N/A   Overcast
5:15 PM 47.8 °F 38.1 °F 69% 30.31 in 10.0 mi North - - N/A   Overcast
5:35 PM 47.8 °F 38.5 °F 70% 30.30 in 10.0 mi North - - N/A   Overcast
5:55 PM 47.3 °F 37.9 °F 70% 30.30 in 10.0 mi North - - N/A   Overcast
6:15 PM 47.3 °F 38.3 °F 71% 30.29 in 10.0 mi North - - N/A   Overcast
6:35 PM 47.1 °F 38.5 °F 72% 30.29 in 10.0 mi North - - N/A   Overcast
6:36 PM 46.9 °F 38.5 °F 72% 30.29 in 10.0 mi North - - N/A   Overcast
6:55 PM 46.8 °F 38.7 °F 73% 30.28 in 10.0 mi North - - N/A   Overcast
7:15 PM 46.4 °F 38.7 °F 74% 30.28 in 10.0 mi North - - N/A   Overcast
7:16 PM 46.4 °F 38.7 °F 74% 30.28 in 10.0 mi North - - N/A   Overcast
7:35 PM 46.2 °F 38.7 °F 75% 30.27 in 10.0 mi North - - N/A   Mostly Cloudy
7:55 PM 45.0 °F 38.5 °F 78% 30.26 in 10.0 mi North - - N/A   Scattered Clouds
8:15 PM 44.6 °F 38.3 °F 79% 30.25 in 10.0 mi North - - N/A   Clear
8:35 PM 44.6 °F 38.3 °F 79% 30.25 in 10.0 mi North - - N/A   Scattered Clouds
8:55 PM 44.8 °F 38.7 °F 79% 30.25 in 10.0 mi North - - N/A   Mostly Cloudy
9:15 PM 45.5 °F 39.0 °F 78% 30.24 in 10.0 mi North - - N/A   Overcast
9:16 PM 45.5 °F 39.0 °F 78% 30.24 in 10.0 mi North - - N/A   Overcast
9:35 PM 45.1 °F 39.2 °F 80% 30.23 in 10.0 mi North - - N/A   Overcast
9:55 PM 45.5 °F 39.6 °F 80% 30.22 in 10.0 mi North - - N/A   Overcast
10:15 PM 46.0 °F 39.6 °F 78% 30.21 in 10.0 mi North - - N/A   Overcast
10:16 PM 46.2 °F 39.6 °F 78% 30.21 in 10.0 mi North - - N/A   Overcast
10:35 PM 46.4 °F 39.6 °F 77% 30.21 in 10.0 mi North - - N/A   Overcast
10:55 PM 46.4 °F 39.6 °F 77% 30.20 in 10.0 mi North - - N/A   Overcast
11:15 PM 46.4 °F 39.6 °F 77% 30.20 in 10.0 mi North - - N/A   Overcast
11:16 PM 46.4 °F 39.6 °F 77% 30.20 in 10.0 mi North - - N/A   Overcast
11:35 PM 46.4 °F 39.7 °F 78% 30.20 in 10.0 mi North - - N/A   Overcast
11:55 PM 46.4 °F 40.3 °F 79% 30.20 in 10.0 mi North - - N/A Rain Light Rain
11:56 PM 46.4 °F 40.3 °F 79% 30.19 in 10.0 mi North - - N/A Rain Light Rain